Regional Weather Roundup
Issued by NWS

Home | Current Version | Previous Version | Text Only | Print | Product List | Glossary On
Versions: 1 2 3 4 5 6 7 8 9 10 11 12 13 14 15 16 17 18 19 20 21 22 23 24 25 26 27 28 29 30 31 32 33 34 35 36 37 38 39 40 41 42 43 44 45 46 47 48 49 50
000
ASUS43 KDMX 051207
RWRIA

WEATHER ROUNDUP FOR IOWA
NATIONAL WEATHER SERVICE DES MOINES IA
700 AM CDT SAT SEP 05 2015

NOTE: "FAIR" INDICATES FEW OR NO CLOUDS BELOW 12,000 FEET WITH NO
SIGNIFICANT WEATHER AND/OR OBSTRUCTIONS TO VISIBILITY.

* - THESE STATIONS ARE NOT NWS STATIONS...THUS NOT UNDER NWS
QUALITY CONTROL.  THEY ALSO DO NOT REPORT WEATHER SUCH
AS PRECIPITATION OR FOG.

IAZ001>003-012>014-020>022-031>034-043>046-051300-
   NORTHWEST IOWA

CITY           SKY/WX    TMP DP  RH WIND       PRES   REMARKS
CARROLL *        N/A     72  70  94 S8        29.96S
CHEROKEE *     PTCLDY    72  71  96 S7        29.92S
DENISON *      CLEAR     73  68  83 S15       29.93S
LE MARS *      CLOUDY    75  70  83 S12G21    29.89S
ORANGE CITY *  MOCLDY    73  70  88 S9        29.90S
SHELDON *      MOCLDY    73  70  88 S12       29.88F
SIOUX CITY     CLOUDY    73  69  87 SE7       29.88S
6HR MIN TEMP:  73; 6HR MAX TEMP:  76;

SPENCER        PTCLDY    73  68  84 S12       29.91F HAZE
6HR MIN TEMP:  74; 6HR MAX TEMP:  76;

STORM LAKE *   CLEAR     72  70  94 S9        29.95S
$$

IAZ055>058-069>071-079>083-090>094-051300-
   SOUTHWEST IOWA

CITY           SKY/WX    TMP DP  RH WIND       PRES   REMARKS
ATLANTIC *     CLEAR     72  70  94 S8        29.98S
AUDUBON *      CLEAR     72  66  83 S5        29.99S
CLARINDA *     CLEAR     70  70 100 CALM      30.00S
COUNCIL BLFS * CLEAR     72  70  94 S13       29.95S
CRESTON *      CLEAR     72  68  88 S9        30.02S
LAMONI         CLEAR     72  68  87 S7        30.03R
6HR MIN TEMP:  71; 6HR MAX TEMP:  76;

RED OAK *      CLEAR     72  70  94 S6        29.98R
SHENANDOAH *   CLEAR     72  70  94 SE6       29.97S
$$

IAZ047>049-059>061-072>074-084-051300-
   CENTRAL IOWA

CITY           SKY/WX    TMP DP  RH WIND       PRES   REMARKS
AMES           MOCLDY    70  68  93 SE6       30.00S FOG
6HR MIN TEMP:  69; 6HR MAX TEMP:  75;

ANKENY *       CLEAR     72  70  94 S6        30.00S
CHARITON *     CLEAR     72  68  88 SE6       30.03R
DES MOINES     MOCLDY    74  68  81 SE7       30.00R
6HR MIN TEMP:  73; 6HR MAX TEMP:  79;

GRINNELL*      PTCLDY    70  66  88 SE5       30.04S
KNOXVILLE *    CLEAR     72  68  88 SE5       30.01S
MARSHALLTOWN   PTCLDY    70  68  93 SE6       30.01S
6HR MIN TEMP:  70; 6HR MAX TEMP:  76;

PELLA *        PTCLDY    72  71  98 S6        30.03S
PERRY *          N/A     70  69  96 SE5       29.99S FOG
$$

IAZ004>006-015-016-023>025-035-036-051300-
   NORTH CENTRAL IOWA

CITY           SKY/WX    TMP DP  RH WIND       PRES   REMARKS
ALGONA *       PTCLDY    73  70  88 S12       29.95F
CLARION *      CLEAR     72  68  88 S9        29.98F
ESTHERVILLE    MOCLDY    71  69  93 S12       29.93S
6HR MIN TEMP:  71; 6HR MAX TEMP:  74; 6HR PCP:  0.01;

FORT DODGE *   MOCLDY    73  66  78 S8        29.98S
MASON CITY     PTCLDY    70  68  93 S9        30.00F
6HR MIN TEMP:  68; 6HR MAX TEMP:  76;

FOREST CITY *  CLEAR     70  70 100 S8        29.98S
IOWA FALLS *     N/A     70  68  94 SE6       30.02S
$$

IAZ007>011-017>019-026>030-037>042-050>054-066-051300-
   NORTHEAST IOWA

CITY           SKY/WX    TMP DP  RH WIND       PRES   REMARKS
CEDAR RAPIDS   CLEAR     71  70  96 S3        30.04R
6HR MIN TEMP:  71; 6HR MAX TEMP:  75;

CHARLES CITY * CLEAR     72  72 100 S5        30.02S
CLINTON *      CLOUDY    72  70  94 S5        30.08S
DECORAH *      CLEAR     72  72 100 SE6       30.03S
DUBUQUE        CLOUDY    73  71  93 S6        30.06S
6HR MIN TEMP:  73; 6HR MAX TEMP:  76; 6HR PCP: TRACE;

MONTICELLO *   PTCLDY    72  70  94 CALM      30.04S
OELWEIN *      CLOUDY    72  70  94 SE6       30.04S
WATERLOO       CLEAR     72  69  90 S6        30.01S
6HR MIN TEMP:  71; 6HR MAX TEMP:  77;

$$

IAZ064-065-067-068-078-051300-
   EAST CENTRAL IOWA

CITY           SKY/WX    TMP DP  RH WIND       PRES   REMARKS
DAVENPORT      CLOUDY    73  70  90 S5        30.06R
6HR MIN TEMP:  71; 6HR MAX TEMP:  75;

IOWA CITY      CLEAR     71  69  93 CALM      30.05R
6HR MIN TEMP:  71; 6HR MAX TEMP:  76;

MT. PLEASANT * CLEAR     71  67  87 CALM      30.06R FOG
MUSCATINE *    CLEAR     72  70  94 CALM      30.06R
QUAD CITIES    MOCLDY    73  68  84 CALM      30.05S
6HR MIN TEMP:  72; 6HR MAX TEMP:  77;

$$

IAZ062-063-075>077-085>089-095>099-051300-
   SOUTHEAST IOWA

CITY           SKY/WX    TMP DP  RH WIND       PRES   REMARKS
BURLINGTON     PTCLDY    71  70  96 SE3       30.06R
6HR MIN TEMP:  71; 6HR MAX TEMP:  75;

FAIRFIELD *    CLEAR     72  68  88 S5        30.05R
FORT MADISON * CLEAR     73  70  88 CALM      30.07R
KEOKUK *       CLEAR     73  70  88 CALM      30.05R
OSKALOOSA *      N/A     68  66  94 SE3       30.04S FOG
CENTERVILLE *  CLEAR     68  68 100 S7        30.06S
OTTUMWA        CLEAR     72  69  90 S8        30.02S
6HR MIN TEMP:  70; 6HR MAX TEMP:  75;

WASHINGTON *     N/A    N/A N/A N/A MISG        N/A
$$

ABBREVIATIONS USED IN REMARKS
   TC - TEMPERATURES IN CELSIUS
  WCI - WIND CHILL INDEX
   HX - HEAT INDEX
  VSB - VISIBILITY
$$




USA.gov is the U.S. government's official web portal to all federal, state and local government web resources and services.